GFSNE_sfc_thetae_000.txt.gz
Theta_e
278 278 278 278 279 279 279 278 276 273 274 276 277 279 279 278 279 278 278 280 283 284 286 287 288 290 291 292 293 295 296 297 298 300 301 302 302 303
278 278 278 278 278 278 279 278 277 274 272 275 277 277 277 277 278 277 277 279 280 282 284 286 287 289 290 291 292 293 294 295 296 297 299 300 301 302
277 277 277 277 276 275 276 275 275 275 272 273 275 275 275 274 275 276 276 276 277 281 283 285 287 287 288 289 289 290 292 293 294 295 296 298 299 300
277 277 276 276 274 273 273 273 273 273 272 270 272 272 273 273 274 274 275 277 277 280 283 285 285 285 286 287 288 288 289 290 291 292 293 295 296 297
277 276 275 274 272 272 271 271 271 272 271 270 270 272 272 273 273 274 275 276 278 280 282 282 283 284 285 286 286 286 286 287 288 289 290 292 293 295
277 276 274 273 272 271 271 270 271 270 270 270 270 270 271 274 274 274 274 276 276 278 279 280 281 282 283 284 284 284 284 285 286 287 288 289 290 292
275 275 274 274 276 273 271 270 270 268 268 268 269 270 272 273 273 274 273 274 275 277 277 278 278 279 279 281 281 282 283 284 286 286 287 288 289 290
274 274 273 274 276 278 277 276 272 266 262 264 271 271 273 273 274 273 273 273 272 277 276 274 276 276 277 278 282 283 285 285 286 286 287 287 288 289
274 273 272 273 273 275 278 277 277 277 274 272 272 273 273 273 274 274 274 274 273 274 273 270 274 273 276 277 280 282 283 284 284 285 286 287 288 289
274 273 273 272 273 274 275 275 275 275 275 275 274 274 274 275 276 277 275 271 271 272 273 268 272 271 274 275 279 281 282 283 284 285 286 287 288 289
274 274 273 273 275 277 273 271 272 273 276 278 279 280 280 279 278 271 264 263 265 268 271 270 271 271 272 273 275 280 281 282 283 283 285 287 288 289
273 273 275 274 277 278 272 270 268 271 273 271 273 274 273 272 274 272 266 259 264 263 273 269 270 270 268 272 274 274 274 277 279 280 281 282 284 284
272 272 273 278 278 280 277 272 271 273 272 268 267 268 268 269 269 270 271 269 266 266 271 271 269 268 268 268 270 272 273 273 274 275 279 280 281 283
272 272 273 278 279 280 279 277 278 271 264 261 260 263 266 267 268 270 270 271 271 270 272 272 268 268 267 266 267 271 272 273 273 273 275 278 281 282
274 274 276 279 279 279 280 279 273 266 263 258 260 264 266 268 269 269 269 269 269 270 271 271 270 269 269 267 267 269 270 271 272 271 272 272 273 275
275 275 276 278 279 273 275 275 268 267 265 264 264 266 267 266 265 267 265 265 264 264 269 270 270 270 268 269 269 268 269 267 270 271 271 271 273 274
273 273 274 271 269 267 267 266 266 266 265 264 264 264 264 264 264 265 265 263 262 262 263 266 269 271 271 270 267 267 267 268 269 269 270 269 271 272
272 271 269 268 267 266 265 264 265 265 265 264 263 263 263 262 262 263 263 261 261 262 263 264 266 266 266 268 272 267 268 268 269 269 270 268 268 271
270 268 267 266 266 266 265 264 264 264 264 263 263 262 262 261 261 260 261 262 261 262 262 264 264 263 261 260 267 273 268 268 268 267 268 268 267 269
268 267 266 266 265 264 264 263 263 262 262 261 261 259 258 257 257 258 259 259 260 261 261 263 263 263 263 262 263 266 272 269 268 267 268 269 270 273
266 266 266 264 263 263 262 261 260 259 258 257 256 254 255 254 256 257 259 260 261 261 261 261 264 267 266 266 263 264 267 272 272 269 269 267 267 268
266 264 263 262 261 260 259 258 256 255 255 254 253 253 254 254 257 257 258 259 259 262 262 263 265 264 264 263 262 263 265 268 271 272 272 271 267 264
264 262 260 260 259 257 256 255 254 256 254 252 252 251 253 254 256 258 258 259 261 262 261 261 262 263 263 263 263 263 264 265 266 266 267 271 272 272

GFSNE_sfc_thetae_003.txt.gz
Theta_e
284 283 283 283 284 284 284 284 285 280 279 281 282 283 283 282 281 281 280 280 283 284 286 287 289 291 292 293 294 295 296 297 298 299 300 301 303 304
283 282 282 282 282 283 283 282 282 283 280 280 281 282 281 280 280 279 279 279 280 282 284 286 288 289 290 291 292 293 294 295 296 297 298 299 300 301
281 281 281 281 281 281 281 281 281 280 280 277 279 279 278 278 278 278 279 279 280 281 283 285 287 287 288 289 290 291 292 292 293 294 295 296 297 298
280 280 280 280 279 280 280 279 279 279 278 277 275 276 276 277 277 277 277 278 279 280 283 285 285 285 286 287 288 288 289 289 290 290 291 293 294 295
281 280 279 279 278 278 278 277 277 277 277 276 275 275 275 276 277 277 278 279 279 281 282 282 283 284 285 286 287 287 287 287 288 288 289 290 291 292
281 280 279 278 278 277 276 276 276 275 275 274 273 273 274 276 276 276 276 278 278 280 280 281 282 282 283 284 284 284 285 286 287 288 289 290 290 291
280 279 279 279 280 278 276 275 274 274 274 273 272 273 274 274 275 277 275 277 279 280 280 280 280 280 281 282 282 282 284 286 287 287 288 288 289 290
278 278 278 278 280 280 280 278 276 272 271 272 273 272 274 275 276 275 275 276 275 281 277 276 278 278 279 280 281 283 284 285 285 286 287 288 288 288
279 277 276 277 278 278 281 280 279 279 276 274 274 275 275 276 276 275 276 276 275 276 275 274 277 276 278 278 280 282 283 284 285 285 286 287 287 289
278 278 276 276 277 277 278 277 277 277 276 276 277 277 277 277 277 278 276 274 273 274 275 271 276 275 277 278 280 282 283 284 284 284 284 284 285 285
278 278 277 276 278 280 277 276 275 275 279 280 280 279 280 280 280 275 271 270 269 271 273 272 273 273 275 276 278 280 281 281 281 282 282 282 283 283
277 276 278 276 279 281 277 276 274 275 276 277 277 279 280 277 276 274 272 268 269 268 274 271 272 272 270 275 276 276 277 278 279 280 280 281 281 280
275 275 275 279 280 281 279 276 275 276 276 275 275 274 273 273 272 273 273 271 269 268 272 272 271 271 270 270 272 274 275 276 276 277 279 280 280 280
275 275 275 280 280 282 279 277 278 276 275 272 271 270 270 270 271 271 272 272 272 271 272 272 270 270 269 268 268 272 274 275 276 276 276 278 279 279
277 277 277 280 281 282 281 278 277 273 271 269 268 269 269 270 270 270 270 269 269 270 271 271 270 270 269 268 267 269 270 273 275 274 276 275 275 275
278 277 277 279 280 280 279 278 274 272 270 270 268 269 269 268 268 268 267 267 266 266 268 270 270 270 269 269 269 268 271 269 272 273 273 273 274 275
275 275 275 276 276 276 275 271 270 269 269 268 267 266 267 267 266 267 266 265 264 264 265 267 269 269 269 269 267 268 269 270 272 272 272 272 273 274
273 273 273 275 271 272 270 269 268 267 268 267 266 266 265 265 265 265 265 264 263 263 264 265 266 265 267 268 271 268 269 270 271 272 272 270 270 273
273 273 273 273 271 271 269 268 266 267 267 266 265 265 264 264 263 263 263 263 263 263 263 265 264 264 262 260 267 271 268 269 269 268 270 270 270 271
274 273 272 272 270 268 268 267 266 266 266 265 265 264 263 262 261 261 262 261 261 261 262 263 263 264 263 262 263 266 270 268 268 268 269 271 272 275
272 272 271 270 269 268 267 267 265 264 264 263 262 261 260 260 259 260 260 260 261 261 260 261 265 268 267 266 262 263 267 271 271 269 269 268 268 269
270 270 269 269 268 266 265 264 263 262 261 260 260 259 259 259 260 259 259 260 260 261 261 263 266 266 265 263 261 262 264 267 270 271 272 272 268 265
269 267 266 265 264 263 262 261 261 260 259 259 258 258 257 257 258 259 259 259 259 260 261 263 264 264 263 263 262 262 263 263 265 265 268 272 272 272

GFSNE_sfc_thetae_006.txt.gz
Theta_e
292 292 292 291 291 292 292 293 292 285 284 287 286 289 288 286 285 285 284 282 284 284 285 286 288 290 291 292 293 294 295 296 297 297 298 298 299 300
290 290 289 290 290 290 289 290 290 292 288 288 287 287 287 285 284 283 283 280 282 282 284 285 287 288 289 289 291 292 293 294 294 295 295 296 297 298
288 288 288 289 288 288 288 288 287 288 289 283 286 286 285 284 281 282 282 283 284 282 283 285 286 287 287 288 289 290 291 291 292 292 293 294 295 296
287 286 286 285 287 287 287 286 286 286 287 282 281 281 281 282 282 281 280 281 282 282 283 285 285 285 286 287 287 288 288 288 289 290 291 292 293 293
286 285 285 284 284 285 285 285 285 283 284 284 280 281 280 280 279 280 281 282 282 281 283 283 283 284 285 286 286 286 286 286 287 288 289 290 291 292
287 286 284 283 284 284 283 284 284 283 282 281 280 278 278 279 279 279 279 281 281 282 282 282 282 283 284 284 285 284 284 285 287 288 288 288 289 290
285 285 284 284 285 285 283 283 282 282 281 280 278 278 277 276 277 280 279 280 282 283 282 283 282 282 283 283 283 283 284 285 286 287 287 288 288 288
284 284 283 283 284 286 286 285 283 281 280 280 278 277 278 278 279 278 278 278 279 283 281 280 281 280 282 282 283 283 284 284 285 286 286 287 287 287
284 283 282 281 282 282 285 285 283 284 284 281 279 279 278 279 279 278 278 279 279 280 279 276 280 279 281 280 282 282 283 284 284 285 285 285 285 285
284 283 282 281 281 281 281 281 280 281 281 280 281 280 281 281 280 280 280 280 279 278 277 273 279 278 280 280 282 282 282 283 283 283 283 284 284 284
284 284 283 282 281 283 281 280 279 279 282 281 281 282 282 282 281 280 277 275 274 275 276 274 276 276 277 278 280 281 281 281 281 281 282 282 283 283
283 282 283 282 283 283 281 280 277 277 277 277 279 281 281 280 281 279 278 274 274 273 275 273 275 274 274 278 279 279 279 279 280 280 281 281 281 281
283 282 281 283 283 283 283 280 280 279 278 277 278 278 278 280 279 278 277 275 273 273 276 274 274 274 273 273 275 276 277 277 277 278 279 280 280 280
283 282 281 281 283 282 283 282 282 280 278 278 277 276 275 276 276 275 275 275 275 274 275 274 272 272 271 270 271 275 275 276 276 276 277 278 279 280
284 283 281 281 282 282 284 282 281 278 277 276 275 275 275 275 274 273 273 274 273 272 273 273 272 272 272 270 270 271 272 274 275 276 275 275 276 277
284 281 280 280 281 281 281 282 279 276 276 275 274 274 274 272 272 272 270 270 269 270 271 272 272 271 270 271 271 270 271 270 274 274 274 275 276 277
280 278 277 277 277 278 279 277 277 274 274 274 273 271 271 271 270 270 270 269 267 268 269 270 271 271 271 270 268 269 270 271 273 273 273 272 274 275
277 276 276 276 277 278 278 275 274 273 273 272 271 270 269 269 268 268 268 267 267 267 267 268 268 268 269 270 272 269 270 270 272 272 271 270 270 273
276 276 276 276 277 278 276 272 272 273 272 271 269 269 269 268 267 267 266 266 265 266 266 267 266 266 264 264 269 272 269 270 270 269 270 270 270 271
277 276 276 277 277 275 274 272 271 270 270 269 268 267 267 267 266 266 265 265 264 265 265 266 266 266 265 265 265 268 271 269 268 268 269 271 272 274
277 276 276 277 275 275 273 271 270 269 268 267 266 266 265 265 265 265 265 264 264 264 263 264 267 268 268 268 265 265 268 271 271 269 269 268 267 267
278 276 275 274 273 272 271 269 268 267 266 266 264 264 264 265 264 263 264 264 263 264 264 266 266 267 266 265 264 264 265 267 269 270 271 270 267 264
274 272 271 271 271 269 268 267 266 265 264 264 263 263 262 262 264 264 264 263 263 263 263 264 265 266 265 265 264 264 264 264 265 265 266 270 271 272

GFSNE_sfc_thetae_009.txt.gz
Theta_e
293 294 294 293 293 293 293 292 290 285 283 288 286 291 290 289 286 285 285 285 284 286 287 287 289 290 291 291 292 293 294 295 296 296 297 297 298 298
292 292 292 292 291 292 292 292 292 291 287 288 287 289 289 287 286 285 284 283 283 285 286 286 288 289 290 290 291 291 292 293 293 294 294 294 295 295
290 290 290 290 290 289 289 289 288 290 291 284 287 288 287 285 283 283 283 282 284 285 285 286 287 288 288 288 289 289 290 291 291 291 292 292 293 294
288 288 288 287 288 288 288 287 287 287 289 282 284 284 284 284 282 281 280 281 282 285 286 286 287 288 287 287 287 288 288 288 288 289 290 291 292 293
288 288 287 287 286 287 286 286 286 283 286 284 281 282 282 283 281 280 280 280 280 283 286 286 287 287 287 287 287 287 287 286 287 288 289 289 290 291
287 288 287 286 286 286 286 285 285 284 284 284 280 279 279 280 280 278 278 280 280 281 283 283 285 285 286 286 286 286 285 285 286 287 288 288 289 289
286 286 287 286 287 287 285 285 285 284 283 282 280 278 277 277 276 279 279 280 281 282 281 281 281 282 283 285 284 284 284 285 286 286 287 287 288 288
284 286 286 285 286 288 289 289 287 285 283 282 281 279 278 278 278 278 279 279 277 283 281 281 281 280 281 281 284 284 284 285 285 286 286 286 286 286
284 284 284 284 285 284 288 289 289 290 289 284 282 281 279 279 279 279 279 279 280 281 281 278 280 278 280 280 284 284 284 284 285 285 285 285 285 285
285 284 284 284 284 283 283 284 285 285 286 285 284 283 282 281 281 281 280 281 279 278 279 275 279 277 279 280 283 283 284 284 284 284 284 284 284 284
285 285 285 284 286 287 282 282 283 283 286 288 286 286 285 285 283 281 278 277 275 276 277 276 277 277 278 277 279 282 283 283 283 283 283 283 283 283
285 285 285 285 286 287 283 282 281 282 281 282 281 283 284 284 284 281 280 276 275 274 277 274 275 275 274 278 279 280 279 280 281 282 282 282 282 279
283 284 285 287 287 287 286 282 282 283 282 281 279 279 280 280 280 280 280 279 275 275 277 276 274 275 272 273 276 278 277 277 277 278 280 281 281 281
282 284 285 287 286 287 286 285 285 284 280 279 277 277 277 278 279 278 278 278 278 277 278 276 273 273 272 271 270 275 276 276 276 275 276 278 280 280
284 285 286 287 286 285 286 286 284 282 278 277 276 277 278 278 278 276 276 276 275 275 275 275 274 273 273 270 270 272 272 274 275 274 275 275 274 275
283 283 285 286 284 282 282 284 282 281 277 277 277 278 278 276 273 273 272 272 270 269 272 273 273 273 270 271 271 269 272 269 273 273 274 274 274 275
279 281 281 282 279 279 279 280 281 280 277 278 278 276 273 273 272 272 271 269 268 268 269 270 272 272 272 271 267 269 269 270 272 272 272 271 272 273
279 278 279 279 277 277 278 278 280 279 277 277 276 273 272 271 270 270 270 269 268 268 269 269 269 269 269 270 272 268 269 270 271 271 271 268 268 272
278 278 278 277 277 277 278 278 278 276 276 275 272 271 271 270 269 268 268 268 267 268 268 269 268 267 264 263 271 275 269 269 269 268 269 268 268 270
279 278 277 277 277 277 278 278 276 274 273 272 271 271 270 269 268 267 267 266 266 266 266 267 266 266 264 263 262 268 272 268 267 266 267 269 270 273
278 278 278 278 277 278 276 275 273 272 272 271 271 270 269 268 267 267 266 266 266 265 264 265 267 270 269 267 263 264 268 272 271 268 268 266 265 266
278 278 277 278 277 275 273 273 272 271 270 270 269 268 268 267 266 266 265 264 264 265 265 267 268 267 266 265 263 264 265 268 270 271 271 270 266 262
279 278 277 275 274 274 272 271 270 269 269 268 267 266 266 266 266 266 265 264 264 264 265 264 265 266 265 265 264 263 264 264 265 264 265 270 271 271

GFSNE_sfc_thetae_015.txt.gz
Theta_e
287 288 290 291 290 288 286 285 285 281 280 280 281 285 288 288 288 288 285 292 293 295 295 295 295 296 296 297 297 297 297 296 296 296 296 296 297 297
286 285 286 289 289 290 289 285 284 289 285 283 282 283 287 288 287 286 283 288 291 293 294 294 294 295 295 295 296 296 296 295 294 294 294 294 295 295
284 284 285 285 287 289 285 286 287 283 287 285 281 282 285 286 285 284 283 284 285 291 292 293 293 293 294 294 294 294 294 294 293 292 293 293 293 294
284 284 284 286 284 286 286 286 287 285 287 286 280 281 283 286 284 283 282 282 282 288 291 292 292 292 293 293 293 293 292 292 292 291 291 292 292 292
285 285 285 285 284 285 285 285 287 286 284 283 281 279 281 284 280 282 280 280 280 284 289 290 291 292 292 293 292 291 291 291 290 290 290 290 290 291
284 285 285 284 285 285 285 285 286 286 285 283 279 278 279 280 282 280 278 279 279 280 285 287 289 290 291 292 291 290 290 290 289 289 290 290 289 290
283 284 284 285 286 287 285 285 286 285 285 285 283 277 277 278 280 280 280 280 280 280 279 280 283 285 286 291 289 290 289 289 289 289 289 289 289 289
280 282 283 284 285 288 289 290 288 285 285 285 284 282 281 282 282 280 280 277 276 279 278 278 281 281 282 284 289 289 289 289 288 289 288 288 288 288
278 280 281 283 283 284 286 289 289 290 291 286 285 284 283 283 282 281 281 280 281 279 280 278 278 278 281 282 288 289 288 288 288 288 288 288 287 286
276 278 279 280 282 283 283 283 284 286 287 288 288 287 287 284 283 284 282 282 280 279 281 277 278 278 280 281 287 288 288 288 288 288 288 288 287 286
274 275 276 277 281 284 283 282 282 283 287 289 290 291 291 291 285 283 281 279 277 277 279 279 278 279 279 279 282 288 288 288 288 288 288 287 286 285
270 272 275 276 279 282 280 281 280 281 283 284 285 288 289 289 289 283 283 279 280 276 280 278 277 276 275 278 279 282 284 287 287 288 286 286 285 280
269 270 273 276 278 280 282 282 282 284 284 283 283 284 285 286 286 285 283 282 281 280 278 280 277 276 276 274 277 279 280 281 283 285 286 285 284 281
267 269 271 275 277 279 280 283 286 286 284 282 282 282 282 284 285 285 284 284 284 284 279 282 278 278 274 272 273 277 278 280 280 278 278 281 282 283
268 269 272 273 275 276 280 282 283 283 283 283 281 281 282 284 284 283 283 283 282 283 280 281 279 279 278 274 273 274 275 276 277 276 276 276 277 277
268 267 269 271 273 275 274 280 281 282 283 283 282 282 282 282 282 281 279 278 278 275 278 281 278 278 277 275 274 274 275 273 275 276 276 276 277 277
269 267 267 269 269 270 271 279 280 281 281 283 282 281 280 280 279 280 279 277 276 274 272 274 276 276 275 274 272 274 273 273 275 274 274 273 275 276
271 267 267 267 267 268 270 273 276 278 280 282 281 281 279 278 278 277 278 275 275 272 272 272 271 271 270 271 274 272 272 272 273 273 273 271 271 274
270 267 266 267 268 269 271 273 276 278 281 281 281 279 278 277 277 276 275 274 274 271 271 271 271 270 266 265 269 275 271 271 272 271 271 271 269 272
269 268 267 267 268 269 271 273 277 278 279 280 280 279 278 277 276 274 274 272 273 270 270 270 270 270 270 269 267 271 275 271 271 270 270 270 271 273
267 269 269 268 269 270 272 274 275 276 277 279 277 278 277 275 274 274 273 273 272 270 268 267 270 272 270 270 268 268 272 275 273 270 270 268 267 267
264 266 271 273 271 271 272 276 276 276 276 277 277 276 275 275 273 272 271 271 270 270 269 270 270 269 269 268 266 266 267 270 273 274 273 271 267 264
263 265 267 273 275 276 276 276 276 275 275 274 274 273 273 272 272 272 271 271 269 268 267 267 268 269 267 267 266 266 266 266 267 266 267 270 270 271

GFSNE_sfc_thetae_021.txt.gz
Theta_e
281 282 282 284 285 286 287 288 287 283 284 288 281 284 285 286 288 288 290 293 300 304 306 305 303 303 303 303 305 306 307 306 306 305 305 305 304 304
280 280 280 281 282 283 284 285 286 286 283 285 288 283 284 285 286 287 288 292 295 300 302 303 302 301 301 302 303 304 305 305 305 304 304 304 303 304
278 278 279 280 280 281 281 282 284 284 283 285 286 284 282 283 284 286 287 288 289 296 299 301 301 300 300 300 301 302 303 303 303 303 303 303 303 303
277 278 278 280 279 279 280 281 281 283 282 281 285 285 281 282 283 284 285 287 287 291 297 299 300 299 299 299 300 300 301 301 302 302 301 301 301 302
277 277 278 278 278 279 278 280 281 283 283 282 282 284 284 281 281 282 283 285 285 289 293 296 298 298 299 298 299 299 299 299 300 300 300 299 299 300
277 277 277 277 277 278 279 279 280 280 281 281 281 282 283 283 281 282 281 283 283 284 287 290 294 295 297 298 297 296 297 297 298 298 298 297 298 298
275 276 277 277 280 280 279 278 279 279 279 279 280 281 281 278 280 282 282 283 282 284 282 284 287 289 291 295 293 294 296 297 297 297 296 296 296 296
273 274 274 275 276 279 280 281 281 278 279 280 280 279 280 282 282 283 282 281 279 283 282 281 284 285 287 289 293 294 295 296 296 295 295 294 295 295
271 271 272 273 273 273 275 277 278 279 281 279 280 281 281 282 283 281 282 283 283 282 283 281 282 282 285 287 292 294 294 295 295 294 294 294 294 293
269 270 270 270 271 271 271 271 272 273 275 276 277 279 282 283 284 284 283 283 284 284 283 280 283 281 283 285 290 293 294 294 294 294 294 294 293 293
269 269 269 269 272 274 272 271 271 272 276 278 279 280 282 284 286 284 283 281 280 281 280 282 283 282 282 282 284 290 293 294 294 294 293 293 293 292
268 269 271 271 273 275 272 270 268 270 271 272 274 276 278 279 283 285 284 282 281 280 283 280 281 279 276 281 282 283 287 292 293 294 293 293 292 289
267 268 270 273 274 275 275 272 271 272 273 272 272 272 275 277 279 282 283 283 283 282 280 281 281 280 279 276 279 281 283 286 289 291 293 293 292 290
268 269 270 273 275 276 275 276 277 277 274 272 270 270 272 275 277 280 283 284 285 285 286 283 277 281 279 279 277 279 280 283 286 287 288 290 292 292
271 272 275 276 277 276 276 276 274 271 270 268 267 268 270 272 276 279 282 283 284 285 286 283 283 282 281 279 278 277 277 281 284 285 286 286 287 287
273 272 274 276 277 276 273 274 272 272 271 270 269 270 271 271 272 275 279 280 281 282 285 286 283 284 280 280 280 276 279 278 282 283 284 285 286 287
273 271 268 268 267 268 270 269 269 269 268 268 268 268 269 269 270 273 279 280 279 279 281 283 283 284 283 281 279 279 278 279 280 282 282 281 283 284
268 263 262 263 264 265 265 266 269 268 268 268 268 268 268 269 271 274 279 280 279 279 280 277 280 279 274 275 282 278 278 278 278 281 280 279 279 281
259 260 260 261 262 263 264 265 265 269 270 269 269 269 270 271 272 275 276 279 279 279 279 275 277 276 274 273 272 281 276 277 277 278 278 278 276 276
259 258 259 260 261 262 263 265 268 269 268 269 269 270 272 273 276 276 278 279 279 277 277 273 276 276 275 273 270 270 281 276 275 276 276 277 277 279
258 258 259 259 260 261 263 265 267 269 268 269 270 271 273 275 277 277 277 276 277 276 274 270 275 278 279 275 270 269 275 280 278 276 275 273 271 272
258 259 259 260 260 261 262 264 265 268 270 270 271 273 274 275 276 277 278 276 276 276 273 273 275 274 274 273 270 267 270 274 278 279 278 275 271 268
259 259 260 260 261 262 263 263 264 265 267 269 271 274 276 276 275 275 275 276 276 274 272 270 271 273 273 273 269 269 269 271 271 271 272 275 275 275

GFSNE_sfc_thetae_024.txt.gz
Theta_e
277 278 279 280 282 282 283 283 282 280 281 285 284 285 285 285 286 286 286 291 295 298 303 308 308 308 308 308 308 307 308 309 309 309 309 309 308 308
277 277 277 278 279 279 280 281 281 281 279 283 285 285 286 287 286 286 286 290 292 295 299 303 306 306 306 306 306 305 306 308 309 308 308 308 307 307
276 276 277 277 278 278 279 279 279 279 278 280 283 285 284 284 286 285 285 286 287 292 295 298 302 304 305 304 304 304 304 306 307 307 306 306 306 306
275 276 276 278 276 277 277 277 278 279 278 277 280 281 282 284 283 283 285 285 285 289 293 295 298 301 302 302 302 302 303 304 305 306 305 305 305 305
276 276 276 276 276 276 276 276 277 279 278 278 278 281 282 283 282 282 282 284 284 288 292 293 295 298 300 301 301 300 300 301 302 302 303 304 303 303
275 275 275 275 275 275 276 276 277 277 278 278 278 278 280 281 280 281 281 281 283 284 287 289 291 294 297 300 299 298 298 299 300 301 301 301 301 302
273 274 274 274 276 276 275 275 276 275 276 276 276 277 278 279 279 281 280 282 282 283 283 283 285 287 290 296 295 296 297 298 299 299 299 299 299 299
271 271 272 272 273 275 276 277 276 274 273 274 275 276 277 279 281 280 280 280 279 281 282 282 283 283 286 289 294 296 297 297 297 298 298 298 298 298
270 270 270 271 271 271 272 274 274 275 276 274 272 273 274 276 278 279 281 280 280 283 280 280 281 281 284 286 292 295 296 296 296 297 297 297 297 296
269 269 269 269 270 270 270 271 271 272 273 274 273 273 273 274 275 276 277 280 282 283 282 279 281 281 283 284 290 293 294 295 296 296 296 296 296 295
269 269 269 269 271 274 272 271 271 272 275 277 277 278 279 279 279 277 275 275 275 278 283 281 282 282 280 282 284 290 293 294 295 295 296 296 295 295
268 269 272 272 274 275 273 271 269 270 271 271 272 274 275 275 277 275 274 272 274 274 282 280 281 279 275 279 282 284 286 292 293 295 295 295 295 292
269 270 271 274 275 276 276 273 272 274 274 273 272 272 273 273 273 274 275 274 273 274 280 283 281 281 279 274 276 281 283 286 288 290 294 295 294 293
269 270 271 275 276 278 278 278 279 278 274 272 271 270 270 271 272 273 274 275 277 277 279 281 282 281 279 278 277 277 280 283 285 286 289 293 294 294
272 273 276 276 277 276 275 276 274 273 272 271 270 270 271 272 272 272 272 273 273 275 278 281 282 282 282 279 278 274 275 278 282 284 286 288 289 290
273 272 273 272 272 271 268 269 269 269 269 269 269 271 272 272 271 271 269 269 269 270 275 280 283 284 281 281 279 275 278 275 280 282 284 285 288 289
271 266 263 262 262 263 264 265 265 266 266 268 268 268 269 269 269 270 269 269 267 268 271 276 282 283 284 282 280 279 277 278 279 281 282 283 284 286
264 258 258 259 260 261 261 262 263 264 265 267 267 268 267 268 268 269 269 268 267 268 271 275 280 281 281 283 285 280 279 278 280 281 282 281 281 284
254 256 257 258 259 260 260 261 261 263 266 267 268 268 269 269 268 269 270 270 269 271 273 274 279 279 276 274 273 285 280 278 279 279 281 281 280 282
250 255 256 258 258 259 260 260 261 262 264 266 268 268 268 269 269 269 271 274 271 272 273 277 279 279 277 274 274 271 282 278 277 277 279 280 281 282
257 257 258 258 259 259 260 261 261 262 264 265 266 269 269 269 270 271 274 275 276 276 277 274 278 280 280 276 272 269 275 282 280 278 278 277 274 274
257 257 258 259 259 260 260 261 262 263 263 264 265 266 268 271 272 273 274 275 276 277 275 274 276 277 275 275 272 266 270 276 281 281 281 278 274 270
256 257 258 259 259 260 261 261 262 263 264 264 264 265 266 267 269 271 274 275 274 274 273 271 273 274 274 274 270 270 271 273 274 272 272 279 276 276

GFSNE_sfc_thetae_027.txt.gz
Theta_e
280 280 280 281 282 282 282 282 280 277 279 284 285 291 291 292 292 293 293 293 294 296 297 299 301 304 310 312 312 311 312 311 310 310 311 312 311 311
279 278 279 280 280 281 281 281 281 279 277 282 283 285 287 287 289 291 291 291 292 294 295 297 298 301 306 308 309 309 311 310 309 309 310 310 310 310
278 278 278 279 279 279 280 280 279 280 278 280 283 284 284 284 286 288 289 289 290 291 293 295 296 298 301 304 307 308 308 308 308 308 310 310 309 309
277 277 277 278 277 278 278 277 278 279 278 276 279 281 282 284 285 285 285 287 288 289 291 293 295 296 298 300 303 305 305 305 306 306 308 309 308 308
275 275 275 275 275 276 276 276 277 277 278 277 276 280 281 283 282 284 285 286 287 288 291 292 293 295 296 297 300 301 302 302 302 303 304 306 307 308
275 275 274 274 274 274 275 275 276 276 276 276 276 277 278 280 281 281 281 284 284 286 287 289 290 291 293 295 297 297 299 300 301 301 302 303 304 305
273 273 273 274 275 275 274 274 274 274 274 273 274 275 276 277 277 281 281 282 284 285 285 287 288 288 290 292 293 294 297 299 300 299 300 300 301 302
271 272 272 272 273 274 275 275 275 273 271 272 272 272 273 274 276 276 277 277 276 285 284 285 287 286 288 289 291 293 296 298 299 298 298 299 300 300
270 270 270 271 271 271 272 273 274 274 275 274 272 272 272 273 273 273 273 274 274 278 280 278 285 285 287 287 289 291 294 296 297 298 298 298 298 298
270 270 270 270 270 271 271 272 272 273 273 274 274 274 274 275 275 275 275 275 276 277 279 275 281 282 287 288 289 290 292 294 296 297 297 297 297 297
270 271 270 270 272 274 273 273 273 273 276 277 278 279 279 279 279 277 274 273 271 274 277 277 278 279 282 284 287 289 291 292 294 295 296 297 297 296
271 271 273 273 275 276 274 273 271 272 274 274 274 276 277 277 278 277 275 271 271 270 275 274 275 276 276 284 285 286 287 291 292 294 295 296 296 295
271 271 272 275 276 277 278 276 275 277 277 276 276 276 276 275 275 275 275 274 272 271 275 275 274 275 275 277 283 285 286 286 288 290 294 295 295 295
271 272 273 276 278 278 276 276 277 276 273 271 271 272 273 274 274 275 276 276 276 275 276 276 274 274 275 275 277 284 284 285 286 287 289 292 294 295
273 274 276 275 274 272 272 273 272 269 268 267 268 269 271 273 274 275 275 275 275 275 275 275 274 273 273 273 275 280 282 282 285 285 287 286 288 290
274 270 270 268 268 268 266 267 267 267 266 266 266 268 270 270 270 272 271 272 271 271 274 274 274 273 271 272 274 277 283 280 282 284 285 285 286 289
269 263 261 261 261 262 263 263 264 265 264 265 266 266 267 268 269 271 271 270 269 269 269 272 273 274 274 273 272 279 280 280 282 282 282 282 284 286
261 258 258 259 259 260 260 261 262 263 264 264 264 266 266 268 269 270 270 270 269 269 269 270 271 270 272 273 278 276 281 281 282 282 282 281 281 285
257 257 257 258 259 260 260 261 261 262 263 263 264 265 266 268 269 269 269 270 269 270 271 272 271 271 269 270 279 284 280 281 281 280 281 282 282 284
255 256 256 258 259 259 260 260 261 262 262 263 264 265 266 267 267 269 269 269 270 271 274 273 272 273 272 272 278 280 284 282 280 280 280 282 284 286
256 256 257 258 259 259 260 260 261 261 262 263 264 265 265 266 266 268 269 270 272 273 273 275 276 279 279 280 277 276 278 284 282 281 281 280 279 278
255 255 256 257 258 259 260 260 261 261 262 263 264 265 265 266 265 266 267 268 270 273 276 278 278 279 278 278 277 273 274 279 283 283 282 282 277 274
254 254 255 256 257 258 259 260 260 261 262 263 265 265 265 264 265 267 267 268 270 272 275 274 275 276 276 276 273 273 274 276 276 272 270 278 278 278

GFSNE_sfc_thetae_030.txt.gz
Theta_e
283 283 282 283 284 284 284 284 281 278 280 284 285 289 290 290 290 289 290 291 292 293 294 295 296 299 301 303 305 309 314 315 314 313 312 311 312 313
282 282 282 283 283 283 283 283 282 281 278 283 285 286 287 287 287 288 288 289 291 291 292 293 294 296 298 300 302 305 309 311 313 312 312 311 311 312
281 281 281 281 281 282 282 282 281 281 279 281 283 284 284 284 286 287 288 288 289 290 290 292 293 293 295 297 299 301 304 308 309 310 311 310 310 311
279 279 279 279 279 280 280 279 279 280 278 277 280 281 282 283 284 284 285 285 287 288 290 291 292 292 293 295 296 298 300 303 306 307 308 309 309 310
278 278 278 278 277 278 277 277 278 278 278 277 277 279 280 281 282 282 283 284 286 288 289 290 290 291 292 293 294 297 298 299 301 304 305 305 307 309
278 277 277 276 276 276 275 276 276 276 276 276 276 276 277 278 279 279 280 283 283 285 287 288 289 290 290 291 292 293 295 297 299 301 302 302 303 305
277 276 276 276 275 275 275 275 275 274 274 273 273 274 274 275 274 276 276 278 279 281 282 285 288 289 290 291 290 291 293 294 296 298 299 301 301 301
274 275 275 274 275 275 275 276 275 274 272 273 272 272 273 274 276 275 275 274 273 279 278 278 281 281 283 289 290 291 290 291 294 296 297 299 300 300
273 273 273 274 274 273 274 275 275 276 276 275 273 273 273 274 275 274 274 274 274 277 277 276 280 279 282 284 286 289 290 290 292 294 295 297 299 298
273 273 272 273 273 273 273 274 274 275 275 275 275 275 276 277 276 276 276 276 277 278 278 274 278 278 281 282 284 285 287 290 290 292 294 295 297 298
273 273 273 273 274 276 275 274 275 275 278 279 279 280 280 281 280 278 276 275 274 275 278 276 276 276 277 278 281 283 286 287 289 291 292 293 295 296
274 274 275 275 276 277 276 275 274 275 277 277 278 278 279 279 279 278 277 273 273 273 277 275 275 275 273 278 279 281 283 286 289 290 291 292 293 294
274 274 274 276 277 278 279 276 274 276 275 274 275 275 275 276 277 278 278 276 273 273 277 276 274 275 274 273 276 278 280 281 285 288 289 291 292 293
273 274 275 277 276 276 275 275 275 274 272 271 271 271 272 273 274 275 276 277 278 276 277 277 274 274 273 272 271 276 277 279 281 285 287 289 291 293
274 275 275 274 272 271 271 272 270 269 268 268 268 269 270 272 272 272 274 275 276 276 277 277 275 275 274 272 271 272 273 276 279 282 286 286 287 289
275 271 270 269 269 269 267 268 267 267 266 266 267 268 269 270 270 271 271 272 272 273 276 277 276 275 273 273 272 271 273 271 275 278 284 286 287 289
271 268 266 265 265 266 266 266 266 266 265 266 266 266 267 268 269 271 271 272 270 270 271 274 276 276 275 273 271 272 272 272 275 276 280 283 285 286
268 264 263 264 263 264 264 264 265 265 265 265 265 266 266 266 267 269 270 271 270 271 271 273 273 273 273 273 275 271 272 272 275 276 282 281 282 286
264 262 262 262 262 263 263 264 263 265 265 265 265 265 266 266 266 267 268 269 270 271 272 273 273 273 270 267 273 278 272 273 274 275 281 282 282 284
261 261 261 261 262 262 263 263 263 264 264 264 264 265 265 266 266 266 267 267 268 269 270 273 274 275 273 271 272 277 281 274 276 276 279 283 284 286
260 260 261 261 261 261 262 262 262 262 263 263 264 265 266 266 266 266 267 266 267 268 268 271 274 278 280 279 274 275 279 283 281 281 282 281 280 281
259 259 260 260 260 260 261 261 261 262 262 263 264 265 266 267 266 265 266 266 267 268 269 272 275 278 278 277 277 278 278 280 283 281 280 282 281 278
259 259 259 259 259 259 260 260 260 261 262 262 263 265 265 265 266 266 266 267 267 268 269 271 273 276 276 276 275 276 276 277 276 274 273 278 279 279

GFSNE_sfc_thetae_033.txt.gz
Theta_e
284 285 284 284 285 284 284 283 280 277 278 282 283 286 287 287 288 287 286 289 290 291 292 293 294 295 296 297 299 300 304 306 308 313 317 315 314 313
283 283 283 283 283 284 283 283 282 280 277 281 282 284 285 285 285 285 285 288 288 289 290 291 292 293 294 296 297 298 300 303 306 309 313 315 314 313
282 281 281 282 281 281 281 281 281 280 277 279 281 282 282 282 283 283 284 283 284 287 288 289 291 292 293 294 295 296 297 299 302 304 308 310 313 313
280 280 279 280 279 279 279 279 278 279 277 275 278 278 279 280 280 280 282 283 283 285 288 289 290 291 291 292 293 294 295 296 297 300 302 306 309 310
279 279 278 278 277 278 277 277 277 277 277 276 275 277 278 278 277 278 279 280 282 284 285 285 286 288 289 290 291 292 293 293 294 296 298 300 303 307
279 279 278 277 276 276 275 275 276 275 275 274 274 274 275 276 277 275 275 277 277 280 281 281 283 285 286 288 289 291 292 292 293 293 296 298 300 303
278 277 277 277 277 276 275 275 275 273 273 272 272 272 273 273 273 275 274 275 276 277 277 278 279 279 280 283 283 285 288 290 291 292 294 295 297 299
276 276 276 276 276 277 277 277 276 273 271 271 272 271 272 273 274 274 274 273 271 277 276 275 278 277 279 280 283 285 286 287 287 291 292 292 294 296
275 275 274 275 275 274 275 276 276 277 278 275 273 273 273 274 274 273 273 273 273 276 276 274 277 276 279 280 283 284 284 285 286 287 289 291 292 293
275 274 274 274 274 274 274 274 275 276 276 276 275 275 276 276 276 275 275 275 276 277 278 273 277 276 278 278 282 282 283 283 284 285 287 288 291 292
275 275 274 274 275 277 276 274 274 275 279 281 281 281 281 281 280 278 275 273 271 273 277 275 275 275 276 276 278 281 282 283 283 284 285 287 288 290
275 275 277 277 278 278 276 275 273 273 274 274 275 275 277 277 278 276 275 272 272 271 275 274 273 273 271 275 276 277 277 280 281 283 284 285 287 287
274 274 275 277 277 278 278 273 272 274 273 271 270 271 272 273 274 275 276 274 272 272 276 276 273 273 272 271 274 276 276 276 277 278 280 281 283 287
273 274 275 277 277 276 274 274 275 273 268 268 267 268 269 269 271 272 273 273 274 273 275 275 273 272 271 270 270 274 275 275 276 275 276 278 281 283
274 275 277 275 274 272 272 272 270 268 266 265 265 266 268 269 270 270 271 272 272 273 275 275 274 273 273 271 270 271 272 274 275 274 275 274 274 277
275 273 272 272 271 270 268 269 268 267 266 265 266 267 268 267 267 268 268 269 269 270 273 275 274 274 272 272 272 271 272 271 273 274 274 274 275 275
274 269 267 267 266 266 266 266 267 266 265 266 265 264 265 266 266 267 268 267 266 267 269 272 274 275 274 273 270 271 271 271 273 273 273 271 273 275
268 265 265 264 264 264 264 264 265 265 265 265 264 265 264 264 265 266 267 266 265 266 267 270 271 271 272 273 276 272 272 272 273 273 273 271 271 275
264 263 263 263 263 263 263 263 263 264 264 264 264 264 264 264 264 264 265 266 265 266 267 268 268 268 267 267 273 279 274 273 273 272 272 271 271 274
262 261 261 261 262 262 262 262 262 263 262 263 262 262 263 263 263 264 265 264 264 265 265 266 267 269 269 269 270 274 280 277 275 274 272 274 277 279
260 260 261 261 261 261 261 261 261 261 261 261 261 262 263 263 263 264 264 264 264 264 264 265 268 272 272 273 272 274 277 282 280 277 275 274 274 277
260 259 259 260 260 259 259 259 259 260 260 260 261 261 262 263 263 263 264 264 264 264 265 267 269 271 271 272 272 274 275 278 278 280 281 279 278 276
259 259 259 259 259 258 258 258 258 259 259 259 260 261 262 261 262 264 264 264 264 265 265 266 268 270 271 272 273 273 274 275 274 272 273 279 280 281

GFSNE_sfc_thetae_036.txt.gz
Theta_e
279 279 279 279 280 279 279 279 277 273 274 276 277 280 282 283 284 283 283 286 288 288 289 290 292 293 294 295 296 298 299 300 301 302 305 308 311 315
278 278 277 278 278 278 278 278 277 275 273 276 278 279 280 281 282 281 280 283 284 286 287 288 289 291 292 293 294 296 297 298 299 300 302 304 308 312
277 277 277 277 276 276 276 276 276 275 273 275 277 277 277 277 278 279 280 279 279 283 285 287 289 289 289 291 293 294 295 295 297 298 299 301 303 307
277 276 276 278 275 275 275 274 274 274 273 272 274 275 275 276 276 276 277 279 278 281 284 285 285 286 286 287 289 290 290 292 293 294 296 297 299 302
277 276 276 275 275 274 273 273 273 275 273 273 273 274 274 275 274 275 276 276 278 281 282 282 283 284 285 286 286 288 288 289 291 293 293 294 296 298
277 277 276 275 274 274 274 273 274 273 273 272 272 272 272 274 274 273 273 275 275 277 279 280 281 282 283 284 284 284 284 286 288 289 290 292 293 295
276 276 276 276 278 277 275 274 273 272 271 271 271 271 271 272 272 273 273 273 274 275 275 276 277 277 278 281 281 282 284 286 287 288 288 289 290 292
275 275 275 276 275 277 278 278 277 273 270 270 271 271 272 273 274 273 273 272 270 276 274 274 277 276 277 278 282 283 284 284 285 285 286 286 287 289
275 275 275 275 275 274 275 277 277 277 278 276 273 273 272 273 274 273 273 273 273 275 276 273 276 275 278 279 282 283 283 284 284 284 285 285 286 287
274 274 274 274 274 274 274 273 274 275 276 276 276 276 277 278 277 277 276 276 276 276 277 271 275 274 276 277 281 282 282 283 283 284 284 284 285 285
275 274 274 273 275 278 276 273 274 275 278 278 278 279 279 279 278 274 271 271 270 271 275 273 274 274 275 275 277 280 281 282 282 283 283 283 284 284
273 275 277 276 278 279 276 274 271 271 272 272 272 272 273 273 275 273 272 269 269 269 275 272 272 274 271 274 276 276 276 279 281 281 282 282 282 279
271 272 274 277 278 279 279 274 271 274 269 266 267 268 268 269 270 271 272 271 268 268 272 272 270 271 270 271 273 275 275 276 276 277 280 281 281 280
270 273 273 276 278 278 277 276 276 273 263 262 264 264 265 267 269 269 270 270 271 271 272 272 270 270 269 268 269 273 274 275 275 275 276 278 280 280
273 274 277 277 276 273 273 273 271 264 262 259 263 264 267 268 268 268 269 269 270 271 272 272 271 271 271 269 269 270 271 273 275 274 274 275 274 275
274 272 272 275 274 271 267 268 267 265 265 264 264 266 266 265 265 267 266 266 266 266 270 271 272 272 271 271 271 270 271 270 273 273 274 274 275 275
271 266 262 261 261 262 261 262 264 263 263 264 264 263 263 265 264 266 265 265 263 264 265 268 270 271 271 271 270 270 271 271 273 273 273 272 274 275
268 256 257 259 261 260 259 260 261 262 262 263 262 262 263 263 263 264 265 264 263 264 264 266 266 266 266 268 273 270 272 272 273 274 274 272 272 274
259 255 257 258 260 260 259 259 261 263 261 261 262 261 262 261 262 262 263 263 263 264 264 265 265 264 262 262 268 275 271 272 272 273 275 273 272 274
254 256 258 257 259 257 258 258 260 261 260 260 260 259 259 260 260 261 262 261 262 263 263 264 265 265 265 264 265 269 275 272 273 274 276 277 276 278
259 258 260 258 257 257 254 253 257 258 258 257 258 258 259 260 260 261 262 261 262 263 262 263 266 269 269 269 267 268 272 279 279 277 277 275 271 272
258 258 259 258 255 256 251 252 255 253 253 252 254 256 258 259 260 260 260 260 262 263 263 265 266 267 266 267 267 269 272 274 278 279 278 278 274 271
257 257 257 256 255 254 250 252 253 255 252 250 251 256 257 258 258 259 259 261 263 262 262 262 264 265 265 266 268 269 270 269 270 271 273 276 277 279

GFSNE_sfc_thetae_042.txt.gz
Theta_e
277 278 278 278 278 277 278 277 275 271 272 274 275 277 277 278 279 278 277 280 284 285 285 286 287 288 289 290 291 292 293 293 294 295 297 298 298 299
277 276 276 277 276 276 276 276 276 273 271 274 274 275 276 277 278 277 277 280 280 282 283 285 286 287 287 288 288 290 291 292 293 293 294 296 296 297
276 276 276 276 275 274 275 275 274 274 271 273 274 275 274 274 275 276 276 276 276 280 282 284 285 285 286 286 287 288 288 290 289 290 291 292 293 295
276 276 275 277 274 274 274 273 273 273 272 271 273 273 273 274 274 274 276 277 276 279 282 283 284 284 284 285 285 286 286 287 287 287 288 290 291 292
276 276 275 275 274 274 273 273 272 274 272 272 271 273 273 274 274 275 275 276 277 280 281 282 282 283 283 284 284 284 284 284 285 286 287 288 289 290
277 276 276 275 274 273 273 273 273 272 272 272 271 272 273 274 274 273 273 275 275 277 279 280 281 281 282 283 283 282 282 283 285 286 286 287 287 288
276 276 276 276 278 277 274 273 273 271 272 271 271 271 272 273 272 274 273 274 275 276 275 276 276 276 277 279 280 280 282 284 284 285 285 286 286 287
275 275 275 275 277 280 280 280 278 270 260 263 272 272 273 273 274 273 272 272 268 274 272 271 274 274 275 276 280 281 282 283 284 284 284 285 285 286
275 275 275 275 274 274 276 278 278 278 279 276 274 273 273 274 273 273 271 270 269 271 271 269 272 272 274 276 279 281 281 281 283 284 284 284 284 284
274 274 274 274 274 273 273 272 273 273 274 275 275 275 275 276 275 273 271 269 269 270 271 266 270 270 273 272 277 278 280 282 283 283 284 283 283 284
274 274 273 273 276 278 275 271 272 274 278 280 280 279 278 277 275 270 264 264 263 266 269 268 269 268 270 270 273 277 278 278 279 280 281 282 282 283
273 274 276 275 277 278 275 272 270 272 272 268 269 270 271 270 272 270 268 263 264 262 269 266 267 267 265 269 272 271 273 276 278 279 280 280 281 278
271 272 273 277 278 279 280 275 273 273 270 264 263 265 267 267 268 269 270 268 264 264 268 269 266 266 265 265 268 270 271 272 273 274 277 278 279 279
270 272 272 277 278 279 279 279 280 277 260 257 258 262 264 265 267 268 268 268 269 268 269 269 266 265 264 263 264 268 269 271 272 273 274 276 278 279
275 274 277 278 279 279 280 279 274 264 260 257 259 263 265 267 268 267 267 267 267 267 268 268 267 267 266 264 264 265 266 268 270 272 272 272 273 274
278 275 277 278 278 276 271 273 269 266 265 262 262 265 266 265 263 265 263 263 262 262 267 268 268 267 265 265 265 264 266 265 268 269 271 272 274 275
271 260 262 266 269 269 266 266 267 266 264 262 261 262 263 263 263 263 262 261 260 260 261 264 266 267 266 265 263 264 264 265 268 269 270 270 271 273
273 269 267 266 267 269 268 267 265 264 264 262 260 260 261 261 260 261 261 259 259 260 260 262 262 262 263 264 269 265 266 266 268 269 269 268 268 272
276 274 271 268 267 267 266 265 263 264 263 262 261 260 260 258 257 257 258 259 258 259 260 261 261 261 259 258 263 270 266 266 267 268 270 270 270 272
260 260 262 264 265 265 264 263 262 261 261 260 259 257 256 252 254 255 256 256 257 258 258 259 261 262 260 260 260 263 270 268 267 268 270 271 273 277
253 254 256 258 260 260 259 259 259 258 257 258 256 253 255 249 251 254 256 257 257 256 256 258 262 266 264 263 260 261 264 270 272 269 269 268 268 271
248 248 251 251 254 253 254 255 255 254 256 256 254 254 253 251 253 253 255 256 255 256 257 260 262 262 261 260 259 260 263 266 269 271 272 272 270 266
249 249 249 250 254 254 254 254 254 256 256 256 254 253 251 249 248 255 255 255 255 255 256 259 260 261 260 260 260 260 260 262 264 264 266 272 273 274

GFSNE_sfc_thetae_045.txt.gz
Theta_e
278 278 278 277 278 277 277 277 275 271 271 274 274 277 276 277 278 277 276 279 283 284 285 286 287 288 289 289 290 291 292 292 293 293 294 295 295 296
277 277 277 277 276 276 276 276 275 273 271 274 274 275 275 277 278 277 276 280 280 282 283 285 286 287 287 288 288 289 290 291 291 292 292 293 293 294
276 276 276 276 275 274 275 274 274 274 271 273 273 274 273 274 275 275 276 276 276 280 283 284 285 285 285 286 287 287 288 288 289 290 290 290 291 292
276 276 275 277 274 274 274 273 273 273 272 270 272 272 272 274 274 273 276 277 276 279 283 283 283 284 284 285 285 285 286 286 286 287 287 289 290 291
276 276 275 275 274 273 273 272 272 274 272 271 271 273 273 274 274 275 275 275 277 280 281 281 282 282 283 283 283 283 283 283 284 285 286 287 288 290
277 276 275 275 274 274 273 273 273 272 272 271 271 271 272 274 274 273 273 275 274 277 278 278 279 279 280 280 281 280 281 282 283 285 286 286 287 288
276 276 276 276 278 277 274 273 273 271 271 271 271 271 272 272 272 273 272 273 274 274 273 273 273 273 274 277 277 279 281 282 283 284 285 284 285 286
274 275 275 275 278 280 281 282 277 270 263 263 271 271 272 273 273 273 272 270 268 273 271 270 272 271 273 273 278 279 280 280 281 282 282 284 285 286
275 275 275 275 274 274 277 280 280 280 280 275 273 274 273 273 274 273 272 270 268 271 269 267 270 269 272 274 276 278 279 280 282 282 281 282 283 284
275 275 274 274 274 273 273 272 273 273 274 275 275 274 275 276 276 274 271 266 268 269 270 264 269 268 270 271 275 277 278 279 279 279 280 281 282 282
275 274 274 274 276 279 275 271 272 273 277 280 281 281 281 279 277 271 258 256 262 265 268 267 267 267 269 269 272 275 276 276 277 278 279 280 281 281
275 275 277 275 277 279 276 270 269 272 273 271 272 272 273 271 273 270 267 258 263 261 268 266 266 266 263 268 270 270 271 273 275 276 277 278 279 277
274 273 274 278 280 281 281 275 273 275 272 272 268 267 267 268 268 269 269 268 264 263 268 268 265 265 264 263 266 268 269 270 270 271 275 276 278 278
273 274 273 278 279 280 279 280 281 281 267 263 259 263 264 265 267 268 269 268 268 267 268 268 265 264 263 262 262 267 268 269 269 269 271 274 275 276
275 275 278 278 279 279 280 281 279 271 267 264 265 264 265 266 267 267 267 267 267 267 267 267 266 266 265 262 262 264 265 266 268 269 269 270 271 272
278 276 278 280 279 278 274 276 275 270 268 266 265 265 266 265 263 264 263 263 261 261 265 267 267 265 263 263 263 262 264 263 266 267 269 270 271 273
270 260 262 267 270 271 272 271 271 269 267 266 265 262 263 263 262 263 262 258 257 258 260 263 265 265 264 263 261 263 263 264 267 268 268 267 269 271
270 267 269 269 269 269 269 269 266 267 267 266 264 261 261 261 260 259 261 258 257 258 258 260 261 260 261 261 268 264 264 265 266 266 268 267 267 272
273 266 265 265 266 267 267 266 267 265 266 264 263 261 258 257 257 255 258 258 256 256 258 259 258 258 257 256 262 269 264 264 265 265 267 268 267 269
260 257 254 255 259 261 263 263 262 262 262 261 261 259 257 257 252 254 256 252 254 255 256 257 257 259 259 258 259 262 269 265 265 265 266 268 270 274
249 249 249 249 250 251 255 255 257 258 258 256 256 256 255 254 252 255 255 256 256 253 254 255 260 264 263 262 258 259 263 269 269 266 267 266 266 268
246 245 246 245 246 247 249 251 251 251 252 254 255 255 255 254 254 254 254 254 251 254 256 257 259 260 259 259 257 258 260 263 266 269 270 270 267 265
246 245 246 245 246 247 247 247 247 249 250 255 255 254 253 252 254 254 254 251 253 253 254 255 257 259 258 258 258 258 258 260 262 262 264 270 271 271

GFSNE_sfc_thetae_048.txt.gz
Theta_e
278 278 278 277 278 277 277 276 274 271 271 273 273 277 276 276 278 276 276 280 283 284 285 286 287 288 289 289 290 290 291 292 292 292 293 293 294 294
278 278 277 277 277 277 277 276 275 273 271 273 274 275 275 277 277 277 276 280 280 282 284 285 286 287 287 287 288 288 289 290 290 290 291 291 292 292
277 277 277 276 275 275 275 274 274 274 271 273 274 273 273 274 275 275 276 276 276 280 282 284 285 285 285 285 285 286 286 287 288 288 289 289 290 291
277 276 275 277 274 274 274 273 273 273 272 270 272 272 272 273 274 273 276 277 276 279 282 283 283 282 283 283 283 284 284 284 284 285 286 287 288 289
277 276 275 275 274 273 273 272 273 274 272 271 270 272 273 273 273 274 275 275 277 279 280 280 280 281 281 281 281 281 281 281 283 284 286 287 287 288
277 276 275 275 275 273 273 273 273 272 272 271 271 271 271 273 273 272 273 275 274 276 277 277 278 278 278 279 279 279 279 281 282 283 283 284 284 285
276 277 276 276 279 277 274 273 272 271 271 271 270 270 271 271 272 273 272 273 274 274 272 273 273 272 273 275 275 277 280 281 282 282 283 285 284 284
276 276 276 277 279 281 282 280 276 271 263 265 271 271 272 272 273 272 272 271 269 273 271 269 271 270 272 272 277 278 279 280 281 281 281 281 282 282
276 276 276 276 275 275 279 282 282 283 281 273 272 273 272 273 273 273 273 271 269 271 269 267 270 269 271 273 276 278 278 279 279 279 280 280 281 282
276 276 276 275 275 274 274 273 274 274 275 275 275 274 274 275 275 275 271 266 269 269 270 264 269 268 270 270 275 276 277 278 278 278 279 279 279 280
276 276 275 275 277 280 276 272 272 273 277 280 281 281 282 282 278 270 260 257 263 266 268 266 267 267 268 268 271 274 275 276 276 277 277 278 279 279
276 276 278 277 279 280 277 272 271 273 273 271 273 276 276 272 274 272 268 259 262 260 268 265 266 266 263 267 269 269 269 272 275 275 276 276 277 275
277 276 276 280 282 282 282 276 274 275 273 275 271 270 270 269 269 269 269 268 265 263 267 268 265 264 262 263 266 267 268 269 269 270 273 274 276 276
276 276 275 279 281 281 281 281 282 281 276 267 266 266 266 267 268 268 269 269 269 267 268 268 264 264 262 261 261 266 266 267 268 268 269 272 273 275
278 277 278 280 281 281 281 281 280 278 271 267 265 266 267 268 268 268 268 267 266 267 267 267 265 265 264 262 261 262 264 265 267 268 268 269 269 271
279 274 278 280 280 279 274 276 275 274 272 270 270 269 268 266 265 265 262 262 259 260 264 266 266 265 262 262 262 261 263 262 265 266 268 268 269 270
266 261 264 265 266 266 267 271 272 273 270 270 268 266 265 265 264 264 262 257 255 257 258 262 264 264 263 262 259 261 262 263 266 266 266 265 268 270
265 262 263 265 268 269 268 268 265 266 265 266 264 265 264 263 262 261 261 255 254 257 258 259 259 258 257 259 266 262 263 264 264 265 266 264 265 269
268 263 262 260 260 262 262 262 262 263 263 262 263 261 263 261 260 257 257 257 253 257 258 259 257 255 252 254 259 268 263 263 264 264 265 265 265 267
262 261 260 258 256 256 256 256 256 258 258 258 259 258 258 257 255 253 255 253 254 255 255 257 255 256 256 256 257 261 267 264 264 263 264 266 268 272
256 253 249 248 249 248 248 249 250 252 252 251 250 252 254 254 253 255 256 257 257 255 254 255 259 262 260 259 253 256 262 267 267 264 265 265 265 265
253 247 246 243 244 244 245 245 247 246 247 246 247 250 254 254 255 254 255 255 255 255 255 257 257 257 255 256 256 257 259 262 265 268 269 269 265 263
245 244 244 243 242 242 243 244 244 247 245 246 247 248 251 250 254 255 255 255 255 254 253 254 255 257 255 257 257 257 257 258 261 261 262 269 269 269

GFSNE_sfc_thetae_051.txt.gz
Theta_e
283 283 282 282 282 282 282 281 281 277 277 279 280 281 282 281 280 281 280 281 284 285 286 286 287 288 289 289 289 290 290 290 290 291 291 292 292 292
282 282 281 281 281 282 281 281 280 279 278 279 280 280 280 279 280 280 279 280 281 283 284 285 286 287 286 286 287 288 288 289 289 289 289 290 290 291
281 281 280 280 280 280 280 279 279 279 278 278 279 279 278 278 279 279 279 279 280 281 282 284 285 284 284 284 285 285 286 286 286 286 288 288 289 290
280 279 279 279 279 278 278 278 278 278 278 275 276 277 276 278 278 277 278 279 279 280 282 283 283 282 283 283 283 283 283 283 284 285 286 287 288 288
280 279 278 278 277 277 277 277 277 277 277 276 275 276 277 277 277 278 278 278 278 280 281 280 280 281 281 281 281 281 280 281 283 283 284 285 287 287
279 279 279 278 278 277 276 277 276 276 276 275 274 275 275 276 276 275 276 278 277 278 278 277 279 278 278 279 279 278 279 281 282 283 283 283 283 284
278 279 279 279 280 279 277 277 276 276 275 275 274 274 275 274 274 276 275 276 277 277 275 277 276 275 275 276 276 278 280 281 281 281 281 282 282 282
277 278 278 279 280 282 282 281 278 276 274 274 275 274 275 275 275 275 275 273 272 277 274 273 274 273 274 274 277 278 279 280 280 280 280 281 281 281
278 278 277 277 278 278 282 283 283 282 281 276 276 276 276 276 276 275 275 274 273 275 272 271 274 272 274 274 276 277 278 279 279 279 279 280 280 280
279 278 277 277 277 276 276 276 277 277 279 280 279 278 278 278 277 277 276 273 272 272 272 268 272 270 272 273 275 276 277 277 277 277 278 278 279 279
279 277 277 277 279 281 277 275 276 276 278 281 281 282 282 282 282 276 272 269 270 271 271 268 269 269 270 270 272 274 275 275 276 277 276 277 278 278
278 277 279 278 280 282 280 277 275 276 276 276 276 277 280 277 278 276 273 269 268 266 269 267 268 268 265 270 270 270 271 273 275 275 275 276 276 275
280 279 278 281 282 282 283 279 277 278 276 277 275 275 275 274 274 273 273 271 269 267 270 269 267 267 265 265 267 269 270 270 270 271 273 274 275 275
280 279 278 281 283 283 283 283 283 283 281 277 275 273 272 272 272 272 272 271 271 270 270 269 266 266 264 263 263 267 268 269 269 269 270 272 273 274
281 280 281 282 283 282 283 283 281 280 279 274 272 271 272 273 271 270 270 270 269 269 268 268 266 266 265 263 263 264 265 266 268 269 268 269 269 270
284 281 281 281 281 280 277 279 277 277 275 274 273 273 271 269 269 269 267 266 264 264 266 267 266 266 263 264 264 263 265 263 267 268 269 268 269 270
270 270 271 272 273 273 272 273 274 274 273 272 271 270 269 268 268 267 266 264 262 262 262 264 265 265 264 263 261 263 264 265 267 267 266 266 268 269
269 269 270 270 271 271 270 270 270 269 269 269 268 267 266 266 266 265 264 262 261 260 260 262 262 261 261 262 266 263 265 265 266 266 266 265 266 269
270 269 268 268 266 266 266 265 265 265 265 265 265 264 264 264 263 262 262 261 260 259 260 260 260 259 256 256 262 267 264 264 265 265 266 265 265 268
265 265 264 264 263 262 261 261 261 261 261 261 261 260 260 260 260 259 259 258 258 258 258 259 259 259 258 258 259 262 267 265 265 264 265 267 269 271
262 261 260 259 258 257 256 256 255 257 258 257 257 256 257 257 257 257 258 257 258 258 256 257 261 262 261 260 258 260 264 267 268 265 266 265 265 266
258 257 255 254 254 254 253 253 254 254 255 255 255 255 256 256 257 256 256 256 257 257 257 259 259 259 259 259 258 259 261 264 266 268 268 268 265 262
255 255 253 252 251 251 251 252 252 254 253 253 253 254 254 254 255 256 256 256 256 256 256 256 257 258 259 259 258 259 259 260 262 263 265 269 269 269

GFSNE_sfc_thetae_057.txt.gz
Theta_e
296 294 291 290 289 288 288 288 285 280 280 285 283 287 286 286 285 284 284 285 285 286 287 287 288 290 290 291 291 292 292 292 292 292 291 291 292 292
292 290 288 288 287 287 287 285 286 286 282 283 284 284 285 284 284 282 283 283 284 285 286 286 287 288 289 289 289 290 291 290 290 290 290 290 291 291
289 288 286 286 285 285 285 284 283 284 283 280 283 284 283 282 282 281 283 283 283 285 286 285 286 287 287 287 288 288 288 288 287 287 288 289 290 290
287 286 284 284 284 283 283 283 283 283 282 280 281 281 280 282 282 281 281 281 282 283 286 285 286 286 285 286 286 286 286 285 284 285 286 287 288 288
286 284 283 283 282 282 282 281 282 280 281 281 280 280 280 281 280 281 281 282 282 284 285 285 285 284 284 285 285 285 283 282 283 284 285 285 285 286
284 284 283 282 281 281 281 281 281 280 280 279 279 279 279 280 280 278 278 281 280 281 283 284 282 282 284 284 284 282 281 281 283 283 283 283 283 284
282 282 282 283 284 283 281 280 280 280 280 279 278 278 278 278 278 279 278 279 280 281 280 278 279 279 279 281 281 281 281 282 282 282 282 282 282 282
280 280 282 283 284 285 284 284 282 281 280 280 279 278 278 279 279 279 278 277 275 280 277 277 279 277 278 278 281 281 281 281 281 281 281 281 281 281
280 281 282 283 282 282 284 284 284 285 284 281 279 279 279 280 280 279 278 277 277 279 278 275 277 276 277 277 280 281 280 279 279 280 280 280 280 280
281 281 283 281 281 281 281 281 282 282 282 282 281 280 280 282 282 280 279 278 278 278 278 272 275 274 276 276 279 279 278 278 278 278 279 279 279 279
282 283 284 282 283 284 280 279 279 280 284 285 286 286 286 286 284 281 277 276 275 276 278 275 274 273 273 273 275 277 277 277 277 278 278 277 278 278
281 283 284 284 285 286 281 279 278 279 279 279 278 280 282 281 283 281 279 276 276 275 276 273 272 272 269 272 273 272 272 274 275 276 276 276 276 273
280 282 283 286 286 286 285 282 281 281 281 280 279 278 278 278 278 278 279 278 276 275 277 273 270 270 269 268 270 271 270 271 270 271 274 274 275 275
281 282 283 285 287 287 286 285 285 284 281 280 280 279 279 278 278 278 277 277 276 275 275 274 270 269 267 265 264 268 268 269 270 269 270 272 273 273
285 286 286 286 287 286 287 286 283 283 282 281 280 279 278 276 275 275 275 273 273 273 273 272 270 268 267 264 264 264 266 267 268 269 268 269 268 269
286 285 285 285 285 284 282 283 283 282 281 279 278 276 275 274 273 273 270 270 268 267 271 271 268 267 264 265 264 262 264 262 266 268 268 268 268 269
284 284 283 282 281 281 280 280 280 278 276 276 275 274 273 272 272 271 270 267 264 264 263 266 268 268 266 265 262 263 263 264 267 267 266 265 267 268
280 280 279 280 279 278 277 275 275 273 274 272 272 271 270 269 268 267 266 263 262 262 262 263 264 262 262 262 267 264 264 264 265 265 266 264 264 267
278 278 278 278 278 277 274 273 272 271 268 269 268 267 267 266 264 262 262 262 259 260 260 262 261 259 257 256 262 268 264 263 263 263 265 264 264 266
277 276 275 275 274 272 270 269 268 267 266 266 266 265 262 261 260 259 260 257 257 257 256 258 260 261 259 258 257 261 267 264 264 263 264 265 267 271
271 270 270 269 268 268 267 266 266 265 265 263 262 259 258 258 257 257 258 258 257 254 255 258 262 263 261 260 257 258 263 268 268 265 265 264 263 264
268 267 266 265 265 264 263 262 261 259 259 259 259 258 258 257 257 255 255 255 255 257 258 260 261 260 259 258 257 258 260 262 266 268 269 269 265 262
263 263 262 261 261 261 260 260 260 261 259 258 258 257 255 254 255 257 255 254 254 254 255 255 257 259 257 258 258 258 258 259 261 261 263 269 270 270

GFSNE_sfc_thetae_060.txt.gz
Theta_e
297 295 291 288 288 287 286 283 280 276 277 280 280 284 284 284 284 282 281 285 287 287 288 288 289 290 291 292 293 292 293 293 293 293 292 292 292 293
296 293 288 287 286 285 285 283 283 281 277 280 281 283 284 284 285 281 280 285 285 286 288 288 288 289 290 291 291 291 292 292 291 291 290 290 291 292
290 289 286 286 285 284 282 282 282 282 279 279 281 282 282 281 281 280 280 280 281 285 286 287 288 288 289 289 289 289 290 290 289 288 288 289 290 290
288 286 285 285 283 283 282 281 281 282 282 278 279 279 280 281 281 279 280 281 280 283 286 287 288 288 288 288 287 288 288 287 286 285 286 288 288 289
288 286 285 284 282 282 281 281 281 281 281 280 278 279 279 280 278 279 279 279 281 284 287 287 287 287 287 286 286 287 285 284 284 284 285 286 286 286
286 286 284 283 282 281 281 280 280 280 279 279 278 278 278 279 279 277 277 279 279 280 283 284 285 285 285 286 285 284 283 283 284 284 284 283 284 284
283 283 282 282 284 283 281 280 280 279 279 278 278 278 278 278 277 278 277 278 278 279 279 278 277 277 278 282 282 282 282 283 283 283 282 282 282 282
281 281 282 283 285 286 285 285 283 281 279 279 278 278 278 278 279 278 278 276 274 278 276 275 277 276 277 278 281 283 283 283 282 281 281 281 281 281
281 282 282 283 283 283 286 286 285 287 285 282 280 279 279 280 279 278 278 277 276 278 276 275 276 276 277 278 281 282 282 281 280 280 280 280 280 280
282 282 282 282 282 282 282 282 282 283 284 283 281 281 281 281 281 280 278 274 275 277 277 273 275 274 275 275 280 281 281 280 280 279 279 279 279 279
282 282 283 283 284 285 282 281 281 281 285 286 285 285 286 285 284 279 273 270 274 275 278 275 274 272 272 273 275 278 278 278 277 277 277 277 277 277
281 282 284 284 286 287 281 280 278 279 280 280 281 283 285 283 285 281 274 275 276 272 274 273 271 271 268 271 272 273 272 274 275 275 276 275 276 273
280 281 283 287 288 288 285 281 281 282 281 279 279 278 278 278 277 277 277 275 273 275 276 273 269 269 267 267 269 270 270 269 269 270 273 273 275 274
280 281 282 287 288 288 287 285 286 285 280 278 277 276 276 276 276 276 276 276 276 274 274 273 269 268 264 264 264 267 267 268 268 267 269 271 272 272
282 283 284 286 287 288 288 288 285 283 280 278 277 278 278 276 275 274 274 273 273 272 273 271 268 267 265 262 262 263 264 264 266 266 267 268 267 268
284 284 285 285 286 286 283 285 283 282 281 280 278 275 274 272 271 272 267 266 262 263 270 270 268 267 262 264 263 261 263 261 265 266 267 266 267 268
284 284 283 282 281 280 278 279 279 277 277 275 273 272 272 272 272 271 267 261 259 259 260 263 266 266 264 263 259 261 262 264 265 265 264 264 266 267
281 279 279 277 277 277 276 273 273 273 272 271 270 270 270 269 268 266 265 258 257 258 257 259 259 258 257 258 265 261 262 263 264 264 264 263 263 266
276 275 273 272 272 273 273 271 269 268 267 268 267 266 266 266 263 264 262 260 255 255 256 257 256 253 248 250 258 267 261 261 262 262 264 264 263 265
276 275 275 274 270 269 266 265 264 263 264 266 265 263 262 260 258 257 257 253 252 252 251 253 255 256 254 254 253 260 266 262 263 263 264 264 266 270
262 263 261 260 260 260 260 260 263 263 262 262 260 258 258 256 254 255 256 256 253 249 249 253 260 263 260 254 251 254 260 266 266 264 264 263 263 264
258 257 256 256 255 255 256 257 256 256 256 257 256 257 255 255 254 253 251 251 249 252 254 258 258 256 254 256 255 256 258 261 264 267 268 268 264 262
257 256 255 255 255 255 254 253 252 253 252 253 252 252 253 251 251 254 250 249 249 249 251 251 254 256 254 255 255 256 256 257 259 259 262 268 269 269